Starlink 4168

operational
NORAD ID: 52845 Int'l Des: 2022-062 Owner: SPXS Country: US Constellation: starlink
LEOCIRCULAR

关于 Starlink 4168

正在加载描述...

实时位置

正在加载3D地球...

即将过境

高度历史

Altitude vs Time

uPlot chart will show altitude changes over time

两行轨道根数

1 52845U 22062R 25304.15876737 -.00000563 00000-0 -17294-4 0 9997
2 52845 53.2175 255.6744 0001216 91.9906 268.1226 15.08838096186231
Epoch: Oct 31, 2025 • Age: 12 hours

当前状态

高度 559.2 km
速度 7.58 km/s
星下点 -53.33°S, 121.76°W
发射日期 Jun 17, 2022
运行时间 3.3 years
类型 internet

技术详情

分类 Payload
质量 297.00 kg
干质量 275.00 kg
总质量 297.00 kg
长度 0.20 m
直径 2.80 m
跨度 9.00 m
形状 Box + pan
制造商 SPXS
平台类型 Starlink
阶段状态 In Orbit
所有者/国家 SPXS/US

大型星座

Loading constellations...